Regional Weather Roundup
Issued by NWS

Home | Current Version | Previous Version | Text Only | Print | Product List | Glossary Off
Versions: 1 2 3 4 5 6 7 8 9 10 11 12 13 14 15 16 17 18 19 20 21 22 23 24 25 26 27 28 29 30 31 32 33 34 35 36 37 38 39 40 41 42 43 44 45 46 47 48 49 50

000
ASUS44 KMEG 301810
RWRTN
TENNESSEE HOURLY STATE WEATHER ROUNDUP
NATIONAL WEATHER SERVICE MEMPHIS TN
100 PM CDT SAT AUG 30 2014

TNZ002-004-019-021-049-052-054-088>092-301900-
WEST TENNESSEE

CITY           SKY/WX    TMP DP  RH WIND       PRES   REMARKS
MEMPHIS INTL   LGT RAIN  79  72  79 SW3       30.05S
NWS MEMPHIS      N/A     79 N/A N/A MISG        N/A
JACKSON        LGT RAIN  78  72  81 CALM      30.06F
DYERSBURG      CLOUDY    75  64  69 W9        30.06S
UNION CITY     CLOUDY    81  73  78 SW8       30.03F
PARIS          MOSUNNY   79  72  78 S14       30.07S
HUNTINGDON     CLOUDY    77  74  90 S3        30.06S
LEXINGTON      PTSUNNY   75  73  94 CALM      30.07S
SAVANNAH       PTSUNNY   79  79 100 S3        30.08S
$$

TNZ008-025-027-028-033-062-065-066-301900-
NORTH MIDDLE TENNESSEE

CITY           SKY/WX    TMP DP  RH WIND       PRES   REMARKS
NASHVILLE      CLOUDY    81  70  69 W5        30.10S
DICKSON        CLOUDY    73  70  88 S3        30.09F
CLARKSVILLE    CLOUDY    79  73  82 S7        30.07F
LEBANON        CLOUDY    82  68  62 S3        30.09S
SMYRNA         CLOUDY    83  69  62 W5        30.10F
COOKEVILLE     PTSUNNY   82  70  65 S6        30.13S
LIVINGSTON     CLOUDY    82  67  60 SW5       30.15S
GALLATIN       CLOUDY    81  70  69 CALM      30.11S
CROSSVILLE     CLOUDY    78  64  61 VRB5      30.19S
$$

TNZ061-075-076-078-094-096-097-301900-
SOUTH MIDDLE TENNESSEE

CITY           SKY/WX    TMP DP  RH WIND       PRES   REMARKS
LEWISBURG      CLOUDY    86  69  56 CALM      30.09F HX  90
FAYETTEVILLE   SUNNY     84  70  61 S5        30.10F
TULLAHOMA      SUNNY     84  70  61 VRB6      30.12F
WINCHESTER     SUNNY     84  72  65 VRB5      30.11F
MCMINNVILLE    SUNNY     88  73  62 CALM      30.12F HX  96
COLUMBIA         N/A     82  73  74 CALM      30.08F
SHELBYVILLE    MOSUNNY   84  72  65 S5        30.11F
$$

TNZ017-018-042-046-047-301900-
NORTHEAST TENNESSEE

CITY           SKY/WX    TMP DP  RH WIND       PRES   REMARKS
TRI CITIES     PTSUNNY   90  57  32 VRB3      30.17F
ELIZABETHTON   CLEAR     90  59  35 S3        30.17F
$$

TNZ012-013-036-069-073-074-301900-
CENTRAL EAST TENNESSEE

CITY           SKY/WX    TMP DP  RH WIND       PRES   REMARKS
KNOXVILLE      CLOUDY    86  67  52 W6        30.12F
OAK RIDGE      CLOUDY    87  67  51 S3        30.15F HX  90
GATLINBURG     PTCLDY    90  64  43 S3        30.12F HX  91
MORRISTOWN     CLEAR     90  64  43 W9        30.16F HX  91
$$

TNZ083-085-099-301900-
SOUTHEAST TENNESSEE

CITY           SKY/WX    TMP DP  RH WIND       PRES   REMARKS
CHATTANOOGA    PTSUNNY   87  70  56 VRB6      30.12F HX  92
$$

SKY/WX REPORTED AS FAIR MEANS FEW OR NO CLOUDS BELOW
12 THOUSAND FEET.




USA.gov is the U.S. government's official web portal to all federal, state and local government web resources and services.